Time,TemperatureF,DewpointF,PressureIn,WindDirection,WindDirectionDegrees,WindSpeedMPH,WindSpeedGustMPH,Humidity,HourlyPrecipIn,Conditions,Clouds,dailyrainin,SolarRadiationWatts/m^2,SoftwareType,DateUTC
2013-04-05 00:00:00,42.4,26.0,30.04,SSE,167,0.0,1.0,52,0.00,,,0.00,0.00,VWS V14.01,2013-04-05 04:00:00,
2013-04-05 00:02:00,42.4,26.5,30.04,SSE,167,0.0,0.0,53,0.00,,,0.00,0.00,VWS V14.01,2013-04-05 04:02:00,
2013-04-05 00:07:00,42.3,26.9,30.02,SSE,165,0.0,2.0,54,0.00,,,0.00,0.00,VWS V14.01,2013-04-05 04:07:00,
2013-04-05 00:12:00,42.2,27.2,30.03,SSE,168,0.0,0.0,55,0.00,,,0.00,0.00,VWS V14.01,2013-04-05 04:12:00,
2013-04-05 00:17:00,42.0,27.9,30.03,South,179,0.0,0.0,57,0.00,,,0.00,0.00,VWS V14.01,2013-04-05 04:17:00,
2013-04-05 00:22:00,41.9,27.8,30.03,South,186,0.0,5.0,57,0.00,,,0.00,0.00,VWS V14.01,2013-04-05 04:22:00,
2013-04-05 00:27:00,41.8,28.1,30.03,South,171,0.0,4.0,58,0.00,,,0.00,0.00,VWS V14.01,2013-04-05 04:27:00,
2013-04-05 00:33:00,41.6,27.9,30.02,South,173,0.0,2.0,58,0.00,,,0.00,0.00,VWS V14.01,2013-04-05 04:33:00,
2013-04-05 00:38:00,41.5,28.3,30.02,South,182,0.0,0.0,59,0.00,,,0.00,0.00,VWS V14.01,2013-04-05 04:38:00,
2013-04-05 00:43:00,41.4,28.2,30.01,South,184,0.0,4.0,59,0.00,,,0.00,0.00,VWS V14.01,2013-04-05 04:43:00,
2013-04-05 00:48:00,41.3,28.5,30.01,South,182,0.0,2.0,60,0.00,,,0.00,0.00,VWS V14.01,2013-04-05 04:48:00,
2013-04-05 00:53:00,41.1,28.3,30.00,South,187,3.0,7.0,60,0.00,,,0.00,0.00,VWS V14.01,2013-04-05 04:53:00,
2013-04-05 00:59:00,41.0,28.2,30.00,SSW,194,2.0,5.0,60,0.00,,,0.00,0.00,VWS V14.01,2013-04-05 04:59:00,
2013-04-05 01:04:00,40.9,28.5,30.00,SSW,198,2.0,6.0,61,0.00,,,0.00,0.00,VWS V14.01,2013-04-05 05:04:00,
2013-04-05 01:09:00,40.8,28.8,30.00,SSW,199,7.0,7.0,62,0.00,,,0.00,0.00,VWS V14.01,2013-04-05 05:09:00,
2013-04-05 01:14:00,40.6,28.6,30.00,SSW,194,0.0,8.0,62,0.00,,,0.00,0.00,VWS V14.01,2013-04-05 05:14:00,
2013-04-05 01:19:00,40.4,28.8,29.99,South,179,1.0,9.0,63,0.00,,,0.00,0.00,VWS V14.01,2013-04-05 05:19:00,
2013-04-05 01:24:00,40.2,29.4,29.99,South,176,0.0,5.0,65,0.00,,,0.00,0.00,VWS V14.01,2013-04-05 05:24:00,
2013-04-05 01:29:00,40.0,29.6,29.99,SSW,200,3.0,7.0,66,0.00,,,0.00,0.00,VWS V14.01,2013-04-05 05:29:00,
2013-04-05 01:34:00,39.8,29.8,29.99,SSW,207,5.0,7.0,67,0.00,,,0.00,0.00,VWS V14.01,2013-04-05 05:34:00,
2013-04-05 01:40:00,39.7,30.0,29.99,SSW,200,0.0,6.0,68,0.00,,,0.00,0.00,VWS V14.01,2013-04-05 05:40:00,
2013-04-05 01:45:00,39.6,29.9,29.99,SSW,199,3.0,3.0,68,0.00,,,0.00,0.00,VWS V14.01,2013-04-05 05:45:00,
2013-04-05 01:50:00,39.5,30.2,29.98,SSW,200,0.0,3.0,69,0.00,,,0.00,0.00,VWS V14.01,2013-04-05 05:50:00,
2013-04-05 01:55:00,39.5,30.2,29.97,SSW,199,0.0,0.0,69,0.00,,,0.00,0.00,VWS V14.01,2013-04-05 05:55:00,
2013-04-05 02:00:00,39.4,30.1,29.97,SSW,200,0.0,0.0,69,0.00,,,0.00,0.00,VWS V14.01,2013-04-05 06:00:00,
2013-04-05 02:05:00,39.4,30.4,29.97,SSW,202,2.0,3.0,70,0.00,,,0.00,0.00,VWS V14.01,2013-04-05 06:05:00,
2013-04-05 02:10:00,39.3,30.4,29.97,SSW,202,0.0,2.0,70,0.00,,,0.00,0.00,VWS V14.01,2013-04-05 06:10:00,
2013-04-05 02:15:00,39.3,30.7,29.97,SSW,202,0.0,0.0,71,0.00,,,0.00,0.00,VWS V14.01,2013-04-05 06:15:00,
2013-04-05 02:20:00,39.3,30.7,29.96,SSW,204,0.0,1.0,71,0.00,,,0.00,0.00,VWS V14.01,2013-04-05 06:20:00,
2013-04-05 02:25:00,39.2,30.6,29.96,SSW,203,0.0,0.0,71,0.00,,,0.00,0.00,VWS V14.01,2013-04-05 06:25:00,
2013-04-05 02:30:00,39.2,30.6,29.96,SSW,204,0.0,0.0,71,0.00,,,0.00,0.00,VWS V14.01,2013-04-05 06:30:00,
2013-04-05 02:35:00,39.2,30.6,29.96,SSW,204,0.0,0.0,71,0.00,,,0.00,0.00,VWS V14.01,2013-04-05 06:35:00,
2013-04-05 02:41:00,39.1,30.9,29.95,SSW,203,0.0,0.0,72,0.00,,,0.00,0.00,VWS V14.01,2013-04-05 06:41:00,
2013-04-05 02:46:00,39.1,30.9,29.96,SSW,204,0.0,0.0,72,0.00,,,0.00,0.00,VWS V14.01,2013-04-05 06:46:00,
2013-04-05 02:51:00,38.9,31.0,29.96,SSW,203,0.0,0.0,73,0.00,,,0.00,0.00,VWS V14.01,2013-04-05 06:51:00,
2013-04-05 02:56:00,38.9,31.0,29.95,SSW,203,0.0,0.0,73,0.00,,,0.00,0.00,VWS V14.01,2013-04-05 06:56:00,
2013-04-05 03:01:00,38.8,30.9,29.95,SSW,203,0.0,0.0,73,0.00,,,0.00,0.00,VWS V14.01,2013-04-05 07:01:00,
2013-04-05 03:06:00,38.8,31.2,29.94,SSW,203,0.0,0.0,74,0.00,,,0.00,0.00,VWS V14.01,2013-04-05 07:06:00,
2013-04-05 03:11:00,38.7,31.1,29.93,SSW,204,0.0,0.0,74,0.00,,,0.00,0.00,VWS V14.01,2013-04-05 07:11:00,
2013-04-05 03:16:00,38.6,31.0,29.94,SSW,204,0.0,0.0,74,0.00,,,0.00,0.00,VWS V14.01,2013-04-05 07:16:00,
2013-04-05 03:22:00,38.5,31.3,29.93,SSW,203,0.0,0.0,75,0.00,,,0.00,0.00,VWS V14.01,2013-04-05 07:22:00,
2013-04-05 03:27:00,38.4,31.2,29.93,SSW,204,0.0,0.0,75,0.00,,,0.00,0.00,VWS V14.01,2013-04-05 07:27:00,
2013-04-05 03:32:00,38.3,31.1,29.93,SSW,204,0.0,0.0,75,0.00,,,0.00,0.00,VWS V14.01,2013-04-05 07:32:00,
2013-04-05 03:37:00,38.2,31.3,29.93,SSW,204,0.0,0.0,76,0.00,,,0.00,0.00,VWS V14.01,2013-04-05 07:37:00,
2013-04-05 03:42:00,38.1,31.2,29.93,SSW,203,0.0,0.0,76,0.00,,,0.00,0.00,VWS V14.01,2013-04-05 07:42:00,
2013-04-05 03:47:00,37.9,31.0,29.93,SSW,203,0.0,0.0,76,0.00,,,0.00,0.00,VWS V14.01,2013-04-05 07:47:00,
2013-04-05 03:52:00,37.8,30.9,29.93,SSW,204,0.0,0.0,76,0.00,,,0.00,0.00,VWS V14.01,2013-04-05 07:52:00,
2013-04-05 03:57:00,37.7,30.8,29.93,SSW,204,0.0,0.0,76,0.00,,,0.00,0.00,VWS V14.01,2013-04-05 07:57:00,
2013-04-05 04:02:00,37.6,31.1,29.93,SSW,204,0.0,0.0,77,0.00,,,0.00,0.00,VWS V14.01,2013-04-05 08:02:00,
2013-04-05 04:07:00,37.5,31.0,29.93,SSW,204,0.0,0.0,77,0.00,,,0.00,0.00,VWS V14.01,2013-04-05 08:07:00,
2013-04-05 04:13:00,37.3,30.8,29.93,SSW,203,0.0,0.0,77,0.00,,,0.00,0.00,VWS V14.01,2013-04-05 08:13:00,
2013-04-05 04:17:00,37.2,30.7,29.93,SSW,204,0.0,0.0,77,0.00,,,0.00,0.00,VWS V14.01,2013-04-05 08:17:00,
2013-04-05 04:23:00,37.1,30.6,29.93,SSW,204,0.0,0.0,77,0.00,,,0.00,0.00,VWS V14.01,2013-04-05 08:23:00,
2013-04-05 04:28:00,37.0,30.8,29.93,SSW,204,0.0,0.0,78,0.00,,,0.00,0.00,VWS V14.01,2013-04-05 08:28:00,
2013-04-05 04:33:00,36.9,31.0,29.93,SSW,203,0.0,0.0,79,0.00,,,0.00,0.00,VWS V14.01,2013-04-05 08:33:00,
2013-04-05 04:38:00,36.8,30.6,29.93,SSW,203,0.0,0.0,78,0.00,,,0.00,0.00,VWS V14.01,2013-04-05 08:38:00,
2013-04-05 04:43:00,36.7,30.8,29.93,SSW,203,0.0,0.0,79,0.00,,,0.00,0.00,VWS V14.01,2013-04-05 08:43:00,
2013-04-05 04:48:00,36.6,30.7,29.93,SSW,203,0.0,0.0,79,0.00,,,0.00,0.00,VWS V14.01,2013-04-05 08:48:00,
2013-04-05 04:53:00,36.6,30.7,29.93,SSW,204,0.0,0.0,79,0.00,,,0.00,0.00,VWS V14.01,2013-04-05 08:53:00,
2013-04-05 04:58:00,36.5,30.9,29.93,SSW,203,0.0,0.0,80,0.00,,,0.00,0.00,VWS V14.01,2013-04-05 08:58:00,
2013-04-05 05:04:00,36.5,30.9,29.93,SSW,204,0.0,0.0,80,0.00,,,0.00,0.00,VWS V14.01,2013-04-05 09:04:00,
2013-04-05 05:09:00,36.4,30.8,29.93,SSW,204,0.0,0.0,80,0.00,,,0.00,0.00,VWS V14.01,2013-04-05 09:09:00,
2013-04-05 05:14:00,36.3,30.7,29.94,SSW,203,0.0,0.0,80,0.00,,,0.00,0.00,VWS V14.01,2013-04-05 09:14:00,
2013-04-05 05:19:00,36.2,30.6,29.93,SSW,203,0.0,0.0,80,0.00,,,0.00,0.00,VWS V14.01,2013-04-05 09:19:00,
2013-04-05 05:24:00,36.2,30.6,29.93,SSW,204,0.0,0.0,80,0.00,,,0.00,0.00,VWS V14.01,2013-04-05 09:24:00,
2013-04-05 05:29:00,36.1,30.5,29.93,SSW,204,0.0,0.0,80,0.00,,,0.00,0.00,VWS V14.01,2013-04-05 09:29:00,
2013-04-05 05:34:00,36.0,30.4,29.93,SSW,204,0.0,0.0,80,0.00,,,0.00,0.00,VWS V14.01,2013-04-05 09:34:00,
2013-04-05 05:40:00,36.0,30.8,29.93,SSW,203,0.0,0.0,81,0.00,,,0.00,0.00,VWS V14.01,2013-04-05 09:40:00,
2013-04-05 05:45:00,35.9,31.0,29.93,SSW,204,0.0,0.0,82,0.00,,,0.00,0.00,VWS V14.01,2013-04-05 09:45:00,
2013-04-05 05:50:00,35.9,31.0,29.93,SSW,204,0.0,0.0,82,0.00,,,0.00,0.00,VWS V14.01,2013-04-05 09:50:00,
2013-04-05 05:55:00,35.8,30.9,29.93,SSW,204,0.0,0.0,82,0.00,,,0.00,0.00,VWS V14.01,2013-04-05 09:55:00,
2013-04-05 06:00:00,35.6,30.4,29.93,SSW,204,0.0,0.0,81,0.00,,,0.00,0.00,VWS V14.01,2013-04-05 10:00:00,
2013-04-05 06:05:00,35.5,30.3,29.94,SSW,204,0.0,0.0,81,0.00,,,0.00,0.00,VWS V14.01,2013-04-05 10:05:00,
2013-04-05 06:10:00,35.3,30.1,29.94,SSW,203,0.0,0.0,81,0.00,,,0.00,0.00,VWS V14.01,2013-04-05 10:10:00,
2013-04-05 06:15:00,35.2,30.0,29.93,SSW,203,0.0,0.0,81,0.00,,,0.00,0.00,VWS V14.01,2013-04-05 10:15:00,
2013-04-05 06:21:00,35.0,29.8,29.94,SSW,203,0.0,0.0,81,0.00,,,0.00,0.00,VWS V14.01,2013-04-05 10:21:00,
2013-04-05 06:26:00,34.8,29.6,29.94,SSW,204,0.0,0.0,81,0.00,,,0.00,0.00,VWS V14.01,2013-04-05 10:26:00,
2013-04-05 06:31:00,34.6,29.4,29.94,SSW,204,0.0,0.0,81,0.00,,,0.00,0.00,VWS V14.01,2013-04-05 10:31:00,
2013-04-05 06:36:00,34.4,29.5,29.94,SSW,204,0.0,0.0,82,0.00,,,0.00,0.00,VWS V14.01,2013-04-05 10:36:00,
2013-04-05 06:41:00,34.4,29.8,29.93,SSW,204,0.0,0.0,83,0.00,,,0.00,0.00,VWS V14.01,2013-04-05 10:41:00,
2013-04-05 06:46:00,34.4,29.8,29.93,SSW,204,0.0,0.0,83,0.00,,,0.00,0.00,VWS V14.01,2013-04-05 10:46:00,
2013-04-05 06:52:00,34.2,29.6,29.94,SSW,204,0.0,0.0,83,0.00,,,0.00,5.00,VWS V14.01,2013-04-05 10:52:00,
2013-04-05 06:57:00,34.1,29.5,29.94,SSW,204,0.0,0.0,83,0.00,,,0.00,9.00,VWS V14.01,2013-04-05 10:57:00,
2013-04-05 07:02:00,33.9,29.6,29.94,SSW,204,0.0,0.0,84,0.00,,,0.00,12.00,VWS V14.01,2013-04-05 11:02:00,
2013-04-05 07:07:00,33.9,29.6,29.94,SSW,203,0.0,0.0,84,0.00,,,0.00,16.00,VWS V14.01,2013-04-05 11:07:00,
2013-04-05 07:12:00,33.8,29.5,29.94,SSW,204,0.0,0.0,84,0.00,,,0.00,21.00,VWS V14.01,2013-04-05 11:12:00,
2013-04-05 07:18:00,33.7,29.7,29.94,SSW,203,0.0,0.0,85,0.00,,,0.00,26.00,VWS V14.01,2013-04-05 11:18:00,
2013-04-05 07:23:00,33.7,29.7,29.94,SSW,204,0.0,0.0,85,0.00,,,0.00,33.00,VWS V14.01,2013-04-05 11:23:00,
2013-04-05 07:28:00,33.7,30.0,29.93,SSW,204,0.0,0.0,86,0.00,,,0.00,37.00,VWS V14.01,2013-04-05 11:28:00,
2013-04-05 07:33:00,33.7,30.0,29.93,SSW,204,0.0,0.0,86,0.00,,,0.00,46.00,VWS V14.01,2013-04-05 11:33:00,
2013-04-05 07:38:00,33.8,30.1,29.93,SSW,203,0.0,0.0,86,0.00,,,0.00,51.00,VWS V14.01,2013-04-05 11:38:00,
2013-04-05 07:43:00,34.0,30.5,29.93,SSW,203,0.0,0.0,87,0.00,,,0.00,54.00,VWS V14.01,2013-04-05 11:43:00,
2013-04-05 07:48:00,34.2,31.0,29.93,SSW,204,0.0,0.0,88,0.00,,,0.00,67.00,VWS V14.01,2013-04-05 11:48:00,
2013-04-05 07:53:00,34.4,31.2,29.93,SSW,204,0.0,0.0,88,0.00,,,0.00,88.00,VWS V14.01,2013-04-05 11:53:00,
2013-04-05 07:58:00,35.5,32.6,29.93,SSW,204,0.0,0.0,89,0.00,,,0.00,98.00,VWS V14.01,2013-04-05 11:58:00,
2013-04-05 08:04:00,36.3,33.1,29.93,SSW,204,0.0,0.0,88,0.00,,,0.00,114.00,VWS V14.01,2013-04-05 12:04:00,
2013-04-05 08:09:00,36.8,33.6,29.92,SSW,204,0.0,0.0,88,0.00,,,0.00,127.00,VWS V14.01,2013-04-05 12:09:00,
2013-04-05 08:14:00,37.3,34.1,29.92,SSW,204,0.0,0.0,88,0.00,,,0.00,118.00,VWS V14.01,2013-04-05 12:14:00,
2013-04-05 08:19:00,37.5,34.0,29.93,SSW,204,0.0,0.0,87,0.00,,,0.00,90.00,VWS V14.01,2013-04-05 12:19:00,
2013-04-05 08:24:00,37.7,33.9,29.93,SSW,204,0.0,0.0,86,0.00,,,0.00,105.00,VWS V14.01,2013-04-05 12:24:00,
2013-04-05 08:29:00,37.9,34.1,29.93,SSW,204,0.0,0.0,86,0.00,,,0.00,93.00,VWS V14.01,2013-04-05 12:29:00,
2013-04-05 08:35:00,38.0,34.2,29.93,SSW,204,0.0,2.0,86,0.00,,,0.00,98.00,VWS V14.01,2013-04-05 12:35:00,
2013-04-05 08:40:00,38.1,34.3,29.93,SSW,203,0.0,0.0,86,0.00,,,0.00,113.00,VWS V14.01,2013-04-05 12:40:00,
2013-04-05 08:45:00,38.3,34.5,29.93,SSW,204,0.0,0.0,86,0.00,,,0.00,178.00,VWS V14.01,2013-04-05 12:45:00,
2013-04-05 08:50:00,38.5,34.7,29.93,SSW,203,0.0,0.0,86,0.00,,,0.00,172.00,VWS V14.01,2013-04-05 12:50:00,
2013-04-05 08:55:00,39.0,35.2,29.92,SSW,203,0.0,0.0,86,0.00,,,0.00,287.00,VWS V14.01,2013-04-05 12:55:00,
2013-04-05 09:00:00,39.7,35.6,29.92,SSW,205,1.0,3.0,85,0.00,,,0.00,380.00,VWS V14.01,2013-04-05 13:00:00,
2013-04-05 09:05:00,40.6,36.2,29.92,SSW,205,0.0,1.0,84,0.00,,,0.00,308.00,VWS V14.01,2013-04-05 13:05:00,
2013-04-05 09:10:00,40.7,36.0,29.92,SSW,205,0.0,0.0,83,0.00,,,0.00,130.00,VWS V14.01,2013-04-05 13:10:00,
2013-04-05 09:15:00,40.7,35.6,29.92,SSW,205,0.0,0.0,82,0.00,,,0.00,139.00,VWS V14.01,2013-04-05 13:15:00,
2013-04-05 09:20:00,40.6,34.9,29.92,SSW,206,0.0,0.0,80,0.00,,,0.00,244.00,VWS V14.01,2013-04-05 13:20:00,
2013-04-05 09:25:00,40.7,35.0,29.91,SSW,206,0.0,0.0,80,0.00,,,0.00,327.00,VWS V14.01,2013-04-05 13:25:00,
2013-04-05 09:31:00,41.2,35.2,29.91,SSW,206,0.0,0.0,79,0.00,,,0.00,338.00,VWS V14.01,2013-04-05 13:31:00,
2013-04-05 09:36:00,41.9,36.2,29.91,SSW,206,0.0,0.0,80,0.00,,,0.00,396.00,VWS V14.01,2013-04-05 13:36:00,
2013-04-05 09:41:00,42.7,36.0,29.91,West,281,0.0,0.0,77,0.00,,,0.00,397.00,VWS V14.01,2013-04-05 13:41:00,
2013-04-05 09:46:00,43.2,36.2,29.91,West,281,0.0,0.0,76,0.00,,,0.00,410.00,VWS V14.01,2013-04-05 13:46:00,
2013-04-05 09:52:00,43.8,35.0,29.91,NW,304,0.0,3.0,71,0.00,,,0.00,385.00,VWS V14.01,2013-04-05 13:52:00,
2013-04-05 09:57:00,44.6,35.4,29.91,NW,323,5.0,6.0,70,0.00,,,0.00,392.00,VWS V14.01,2013-04-05 13:57:00,
2013-04-05 10:02:00,45.1,34.8,29.91,NNW,348,3.0,4.0,67,0.00,,,0.00,387.00,VWS V14.01,2013-04-05 14:02:00,
2013-04-05 10:07:00,45.6,34.9,29.90,NNW,348,5.0,6.0,66,0.00,,,0.00,380.00,VWS V14.01,2013-04-05 14:07:00,
2013-04-05 10:12:00,46.0,34.9,29.91,North,360,0.0,4.0,65,0.00,,,0.00,381.00,VWS V14.01,2013-04-05 14:12:00,
2013-04-05 10:17:00,46.6,34.3,29.91,WNW,294,0.0,6.0,62,0.00,,,0.00,394.00,VWS V14.01,2013-04-05 14:17:00,
2013-04-05 10:22:00,47.1,33.9,29.91,NW,313,5.0,6.0,60,0.00,,,0.00,415.00,VWS V14.01,2013-04-05 14:22:00,
2013-04-05 10:28:00,47.6,34.0,29.91,WNW,300,5.0,6.0,59,0.00,,,0.00,443.00,VWS V14.01,2013-04-05 14:28:00,
2013-04-05 10:33:00,48.2,34.6,29.91,NNW,334,0.0,4.0,59,0.00,,,0.00,480.00,VWS V14.01,2013-04-05 14:33:00,
2013-04-05 10:38:00,49.0,35.3,29.92,WNW,283,2.0,3.0,59,0.00,,,0.00,512.00,VWS V14.01,2013-04-05 14:38:00,
2013-04-05 10:43:00,49.9,34.4,29.91,NNE,25,2.0,4.0,55,0.00,,,0.00,548.00,VWS V14.01,2013-04-05 14:43:00,
2013-04-05 10:48:00,50.5,33.1,29.91,NNW,332,4.0,5.0,51,0.00,,,0.00,594.00,VWS V14.01,2013-04-05 14:48:00,
2013-04-05 10:53:00,50.9,32.9,29.91,NW,317,0.0,5.0,50,0.00,,,0.00,613.00,VWS V14.01,2013-04-05 14:53:00,
2013-04-05 10:58:00,51.5,33.0,29.91,NW,325,6.0,8.0,49,0.00,,,0.00,624.00,VWS V14.01,2013-04-05 14:58:00,
2013-04-05 11:04:00,52.1,32.5,29.91,NNW,345,7.0,8.0,47,0.00,,,0.00,635.00,VWS V14.01,2013-04-05 15:04:00,
2013-04-05 11:09:00,52.4,30.6,29.91,NNE,26,8.0,12.0,43,0.00,,,0.00,635.00,VWS V14.01,2013-04-05 15:09:00,
2013-04-05 11:14:00,52.5,30.1,29.91,NW,311,7.0,15.0,42,0.00,,,0.00,615.00,VWS V14.01,2013-04-05 15:14:00,
2013-04-05 11:19:00,53.0,30.5,29.91,NW,323,2.0,11.0,42,0.00,,,0.00,592.00,VWS V14.01,2013-04-05 15:19:00,
2013-04-05 11:24:00,53.8,31.3,29.91,NE,34,2.0,10.0,42,0.00,,,0.00,564.00,VWS V14.01,2013-04-05 15:24:00,
2013-04-05 11:29:00,54.5,30.7,29.91,North,5,3.0,9.0,40,0.00,,,0.00,543.00,VWS V14.01,2013-04-05 15:29:00,
2013-04-05 11:35:00,55.0,30.5,29.90,NW,310,4.0,15.0,39,0.00,,,0.00,531.00,VWS V14.01,2013-04-05 15:35:00,
2013-04-05 11:40:00,54.9,29.8,29.90,NW,322,12.0,12.0,38,0.00,,,0.00,536.00,VWS V14.01,2013-04-05 15:40:00,
2013-04-05 11:45:00,55.0,29.9,29.90,WNW,302,10.0,13.0,38,0.00,,,0.00,555.00,VWS V14.01,2013-04-05 15:45:00,
2013-04-05 11:50:00,55.5,31.0,29.90,NW,317,4.0,4.0,39,0.00,,,0.00,601.00,VWS V14.01,2013-04-05 15:50:00,
2013-04-05 11:56:00,56.2,31.6,29.90,WNW,300,4.0,4.0,39,0.00,,,0.00,645.00,VWS V14.01,2013-04-05 15:56:00,
2013-04-05 12:02:00,56.8,30.8,29.89,NNW,329,3.0,9.0,37,0.00,,,0.00,689.00,VWS V14.01,2013-04-05 16:02:00,
2013-04-05 12:07:00,57.1,31.1,29.89,WNW,291,3.0,7.0,37,0.00,,,0.00,698.00,VWS V14.01,2013-04-05 16:07:00,
2013-04-05 12:12:00,57.5,31.5,29.89,North,349,7.0,9.0,37,0.00,,,0.00,661.00,VWS V14.01,2013-04-05 16:12:00,
2013-04-05 12:17:00,57.6,32.2,29.89,NE,53,0.0,6.0,38,0.00,,,0.00,624.00,VWS V14.01,2013-04-05 16:17:00,
2013-04-05 12:22:00,58.2,32.7,29.88,NNW,327,9.0,9.0,38,0.00,,,0.00,594.00,VWS V14.01,2013-04-05 16:22:00,
2013-04-05 12:27:00,58.3,30.8,29.88,NW,315,3.0,9.0,35,0.00,,,0.00,585.00,VWS V14.01,2013-04-05 16:27:00,
2013-04-05 12:33:00,58.4,29.4,29.88,North,9,5.0,12.0,33,0.00,,,0.00,605.00,VWS V14.01,2013-04-05 16:33:00,
2013-04-05 12:38:00,58.4,32.9,29.87,NNW,332,2.0,3.0,38,0.00,,,0.00,656.00,VWS V14.01,2013-04-05 16:38:00,
2013-04-05 12:43:00,59.0,30.7,29.87,NNW,345,6.0,10.0,34,0.00,,,0.00,714.00,VWS V14.01,2013-04-05 16:43:00,
2013-04-05 12:48:00,59.0,30.0,29.86,NNW,329,2.0,9.0,33,0.00,,,0.00,737.00,VWS V14.01,2013-04-05 16:48:00,
2013-04-05 12:53:00,59.0,30.0,29.86,North,5,10.0,11.0,33,0.00,,,0.00,726.00,VWS V14.01,2013-04-05 16:53:00,
2013-04-05 12:58:00,59.0,31.4,29.86,NNW,344,3.0,9.0,35,0.00,,,0.00,714.00,VWS V14.01,2013-04-05 16:58:00,
2013-04-05 13:03:00,59.7,32.0,29.85,NNW,344,12.0,15.0,35,0.00,,,0.00,733.00,VWS V14.01,2013-04-05 17:03:00,
2013-04-05 13:08:00,59.7,30.6,29.85,NW,314,7.0,17.0,33,0.00,,,0.00,763.00,VWS V14.01,2013-04-05 17:08:00,
2013-04-05 13:14:00,59.4,31.0,29.85,North,351,8.0,19.0,34,0.00,,,0.00,796.00,VWS V14.01,2013-04-05 17:14:00,
2013-04-05 13:19:00,59.6,31.9,29.85,NW,321,13.0,16.0,35,0.00,,,0.00,819.00,VWS V14.01,2013-04-05 17:19:00,
2013-04-05 13:24:00,59.8,32.1,29.84,WNW,300,8.0,12.0,35,0.00,,,0.00,817.00,VWS V14.01,2013-04-05 17:24:00,
2013-04-05 13:30:00,59.8,31.4,29.84,North,5,9.0,18.0,34,0.00,,,0.00,817.00,VWS V14.01,2013-04-05 17:30:00,
2013-04-05 13:35:00,59.8,32.1,29.83,NW,311,3.0,15.0,35,0.00,,,0.00,814.00,VWS V14.01,2013-04-05 17:35:00,
2013-04-05 13:40:00,59.9,32.2,29.83,NNW,331,11.0,18.0,35,0.00,,,0.00,810.00,VWS V14.01,2013-04-05 17:40:00,
2013-04-05 13:45:00,59.9,32.9,29.83,NW,314,9.0,14.0,36,0.00,,,0.00,807.00,VWS V14.01,2013-04-05 17:45:00,
2013-04-05 13:50:00,60.2,33.8,29.83,WNW,294,10.0,19.0,37,0.00,,,0.00,810.00,VWS V14.01,2013-04-05 17:50:00,
2013-04-05 13:55:00,60.4,31.9,29.83,NNW,334,8.0,16.0,34,0.00,,,0.00,807.00,VWS V14.01,2013-04-05 17:55:00,
2013-04-05 14:00:00,60.3,31.8,29.82,NNW,332,11.0,21.0,34,0.00,,,0.00,802.00,VWS V14.01,2013-04-05 18:00:00,
2013-04-05 14:05:00,60.9,35.8,29.82,NNW,328,6.0,13.0,39,0.00,,,0.00,795.00,VWS V14.01,2013-04-05 18:05:00,
2013-04-05 14:10:00,61.7,34.5,29.82,NNW,328,8.0,11.0,36,0.00,,,0.00,798.00,VWS V14.01,2013-04-05 18:10:00,
2013-04-05 14:15:00,61.8,33.9,29.82,NW,307,4.0,15.0,35,0.00,,,0.00,788.00,VWS V14.01,2013-04-05 18:15:00,
2013-04-05 14:20:00,61.7,33.8,29.82,North,360,17.0,19.0,35,0.00,,,0.00,789.00,VWS V14.01,2013-04-05 18:20:00,
2013-04-05 14:25:00,61.7,34.5,29.82,NW,324,13.0,17.0,36,0.00,,,0.00,777.00,VWS V14.01,2013-04-05 18:25:00,
2013-04-05 14:30:00,61.3,32.7,29.82,NW,316,6.0,21.0,34,0.00,,,0.00,768.00,VWS V14.01,2013-04-05 18:30:00,
2013-04-05 14:35:00,61.1,33.3,29.82,NW,307,9.0,20.0,35,0.00,,,0.00,770.00,VWS V14.01,2013-04-05 18:35:00,
2013-04-05 14:40:00,61.1,33.3,29.82,NNW,346,10.0,19.0,35,0.00,,,0.00,768.00,VWS V14.01,2013-04-05 18:40:00,
2013-04-05 14:45:00,61.4,32.8,29.82,NNW,336,4.0,5.0,34,0.00,,,0.00,754.00,VWS V14.01,2013-04-05 18:45:00,
2013-04-05 14:50:00,61.8,33.9,29.81,North,355,9.0,10.0,35,0.00,,,0.00,752.00,VWS V14.01,2013-04-05 18:50:00,
2013-04-05 14:55:00,61.8,34.6,29.81,North,5,7.0,14.0,36,0.00,,,0.00,724.00,VWS V14.01,2013-04-05 18:55:00,
2013-04-05 15:01:00,61.6,34.4,29.81,North,360,14.0,16.0,36,0.00,,,0.00,747.00,VWS V14.01,2013-04-05 19:01:00,
2013-04-05 15:06:00,61.7,34.5,29.81,North,5,9.0,15.0,36,0.00,,,0.00,729.00,VWS V14.01,2013-04-05 19:06:00,
2013-04-05 15:12:00,61.8,33.2,29.81,NNW,334,10.0,18.0,34,0.00,,,0.00,722.00,VWS V14.01,2013-04-05 19:12:00,
2013-04-05 15:17:00,61.7,33.1,29.81,NNW,342,16.0,19.0,34,0.00,,,0.00,701.00,VWS V14.01,2013-04-05 19:17:00,
2013-04-05 15:22:00,61.6,33.0,29.81,NNW,336,11.0,17.0,34,0.00,,,0.00,707.00,VWS V14.01,2013-04-05 19:22:00,
2013-04-05 15:27:00,61.5,33.6,29.80,NW,325,14.0,14.0,35,0.00,,,0.00,700.00,VWS V14.01,2013-04-05 19:27:00,
2013-04-05 15:32:00,61.7,33.1,29.80,NNW,340,6.0,13.0,34,0.00,,,0.00,693.00,VWS V14.01,2013-04-05 19:32:00,
2013-04-05 15:37:00,62.0,32.6,29.81,NNW,329,14.0,19.0,33,0.00,,,0.00,684.00,VWS V14.01,2013-04-05 19:37:00,
2013-04-05 15:42:00,61.6,31.5,29.81,NW,325,17.0,21.0,32,0.00,,,0.00,666.00,VWS V14.01,2013-04-05 19:42:00,
2013-04-05 15:48:00,61.3,32.7,29.81,NNE,13,8.0,15.0,34,0.00,,,0.00,657.00,VWS V14.01,2013-04-05 19:48:00,
2013-04-05 15:53:00,61.4,32.1,29.81,NW,326,9.0,22.0,33,0.00,,,0.00,643.00,VWS V14.01,2013-04-05 19:53:00,
2013-04-05 15:58:00,61.3,32.7,29.81,NNW,343,4.0,18.0,34,0.00,,,0.00,636.00,VWS V14.01,2013-04-05 19:58:00,
2013-04-05 16:03:00,61.7,33.8,29.81,North,10,11.0,18.0,35,0.00,,,0.00,622.00,VWS V14.01,2013-04-05 20:03:00,
2013-04-05 16:08:00,61.6,33.0,29.81,NNE,26,13.0,15.0,34,0.00,,,0.00,610.00,VWS V14.01,2013-04-05 20:08:00,
2013-04-05 16:13:00,61.4,32.8,29.81,North,349,9.0,17.0,34,0.00,,,0.00,596.00,VWS V14.01,2013-04-05 20:13:00,
2013-04-05 16:18:00,61.7,33.1,29.81,WNW,293,13.0,18.0,34,0.00,,,0.00,570.00,VWS V14.01,2013-04-05 20:18:00,
2013-04-05 16:23:00,61.7,33.1,29.81,NW,322,10.0,16.0,34,0.00,,,0.00,566.00,VWS V14.01,2013-04-05 20:23:00,
2013-04-05 16:29:00,61.7,33.1,29.81,NNW,336,13.0,19.0,34,0.00,,,0.00,538.00,VWS V14.01,2013-04-05 20:29:00,
2013-04-05 16:34:00,61.7,32.3,29.81,NW,306,5.0,17.0,33,0.00,,,0.00,531.00,VWS V14.01,2013-04-05 20:34:00,
2013-04-05 16:39:00,61.4,32.8,29.81,WNW,300,10.0,20.0,34,0.00,,,0.00,517.00,VWS V14.01,2013-04-05 20:39:00,
2013-04-05 16:44:00,61.4,33.5,29.81,NNW,330,6.0,13.0,35,0.00,,,0.00,497.00,VWS V14.01,2013-04-05 20:44:00,
2013-04-05 16:49:00,61.4,33.5,29.81,NW,310,5.0,15.0,35,0.00,,,0.00,478.00,VWS V14.01,2013-04-05 20:49:00,
2013-04-05 16:54:00,61.4,32.8,29.81,North,355,7.0,23.0,34,0.00,,,0.00,468.00,VWS V14.01,2013-04-05 20:54:00,
2013-04-05 16:59:00,61.2,33.3,29.82,North,350,8.0,16.0,35,0.00,,,0.00,461.00,VWS V14.01,2013-04-05 20:59:00,
2013-04-05 17:04:00,61.2,33.3,29.82,NNW,337,6.0,12.0,35,0.00,,,0.00,452.00,VWS V14.01,2013-04-05 21:04:00,
2013-04-05 17:10:00,61.2,32.6,29.82,WNW,289,11.0,19.0,34,0.00,,,0.00,422.00,VWS V14.01,2013-04-05 21:10:00,
2013-04-05 17:15:00,61.2,33.3,29.83,NNW,347,14.0,15.0,35,0.00,,,0.00,406.00,VWS V14.01,2013-04-05 21:15:00,
2013-04-05 17:20:00,60.9,32.4,29.83,NNW,333,14.0,19.0,34,0.00,,,0.00,387.00,VWS V14.01,2013-04-05 21:20:00,
2013-04-05 17:25:00,60.5,32.7,29.83,NNW,348,9.0,21.0,35,0.00,,,0.00,376.00,VWS V14.01,2013-04-05 21:25:00,
2013-04-05 17:30:00,60.4,32.7,29.83,NNW,330,7.0,14.0,35,0.00,,,0.00,360.00,VWS V14.01,2013-04-05 21:30:00,
2013-04-05 17:35:00,60.4,33.3,29.84,NNW,334,9.0,12.0,36,0.00,,,0.00,350.00,VWS V14.01,2013-04-05 21:35:00,
2013-04-05 17:40:00,60.4,33.3,29.84,NW,318,12.0,14.0,36,0.00,,,0.00,325.00,VWS V14.01,2013-04-05 21:40:00,
2013-04-05 17:45:00,60.2,33.2,29.85,NNW,346,10.0,10.0,36,0.00,,,0.00,302.00,VWS V14.01,2013-04-05 21:45:00,
2013-04-05 17:50:00,60.0,33.0,29.85,North,355,16.0,16.0,36,0.00,,,0.00,297.00,VWS V14.01,2013-04-05 21:50:00,
2013-04-05 17:55:00,59.7,32.7,29.85,NW,310,9.0,9.0,36,0.00,,,0.00,281.00,VWS V14.01,2013-04-05 21:55:00,
2013-04-05 18:01:00,59.6,31.9,29.86,NNW,327,9.0,13.0,35,0.00,,,0.00,265.00,VWS V14.01,2013-04-05 22:01:00,
2013-04-05 18:06:00,59.5,32.5,29.86,North,360,13.0,13.0,36,0.00,,,0.00,251.00,VWS V14.01,2013-04-05 22:06:00,
2013-04-05 18:12:00,59.3,32.4,29.86,NW,322,8.0,9.0,36,0.00,,,0.00,232.00,VWS V14.01,2013-04-05 22:12:00,
2013-04-05 18:17:00,59.2,33.0,29.86,NNW,341,10.0,10.0,37,0.00,,,0.00,211.00,VWS V14.01,2013-04-05 22:17:00,
2013-04-05 18:22:00,59.0,32.1,29.87,NW,321,12.0,16.0,36,0.00,,,0.00,200.00,VWS V14.01,2013-04-05 22:22:00,
2013-04-05 18:27:00,59.0,31.4,29.87,WNW,298,9.0,11.0,35,0.00,,,0.00,179.00,VWS V14.01,2013-04-05 22:27:00,
2013-04-05 18:32:00,59.0,32.1,29.87,NNW,348,9.0,11.0,36,0.00,,,0.00,162.00,VWS V14.01,2013-04-05 22:32:00,
2013-04-05 18:37:00,58.7,31.8,29.87,WNW,294,8.0,11.0,36,0.00,,,0.00,144.00,VWS V14.01,2013-04-05 22:37:00,
2013-04-05 18:42:00,58.5,31.0,29.88,North,355,11.0,17.0,35,0.00,,,0.00,127.00,VWS V14.01,2013-04-05 22:42:00,
2013-04-05 18:48:00,58.4,30.2,29.88,NW,325,12.0,14.0,34,0.00,,,0.00,105.00,VWS V14.01,2013-04-05 22:48:00,
2013-04-05 18:53:00,58.2,30.0,29.88,NW,318,7.0,12.0,34,0.00,,,0.00,90.00,VWS V14.01,2013-04-05 22:53:00,
2013-04-05 18:58:00,58.0,29.8,29.88,NNW,331,10.0,11.0,34,0.00,,,0.00,49.00,VWS V14.01,2013-04-05 22:58:00,
2013-04-05 19:03:00,57.8,29.6,29.89,NNW,336,6.0,14.0,34,0.00,,,0.00,37.00,VWS V14.01,2013-04-05 23:03:00,
2013-04-05 19:08:00,57.5,29.4,29.89,NW,318,10.0,14.0,34,0.00,,,0.00,32.00,VWS V14.01,2013-04-05 23:08:00,
2013-04-05 19:13:00,57.3,28.5,29.90,NW,309,10.0,16.0,33,0.00,,,0.00,28.00,VWS V14.01,2013-04-05 23:13:00,
2013-04-05 19:18:00,57.1,27.5,29.90,NNW,335,4.0,14.0,32,0.00,,,0.00,23.00,VWS V14.01,2013-04-05 23:18:00,
2013-04-05 19:23:00,56.8,27.3,29.90,North,355,6.0,15.0,32,0.00,,,0.00,18.00,VWS V14.01,2013-04-05 23:23:00,
2013-04-05 19:29:00,56.5,27.0,29.90,NW,307,8.0,16.0,32,0.00,,,0.00,12.00,VWS V14.01,2013-04-05 23:29:00,
2013-04-05 19:34:00,56.3,27.6,29.91,NW,323,7.0,15.0,33,0.00,,,0.00,9.00,VWS V14.01,2013-04-05 23:34:00,
2013-04-05 19:39:00,56.0,27.3,29.91,NW,321,8.0,10.0,33,0.00,,,0.00,5.00,VWS V14.01,2013-04-05 23:39:00,
2013-04-05 19:44:00,55.7,27.1,29.91,North,350,6.0,10.0,33,0.00,,,0.00,0.00,VWS V14.01,2013-04-05 23:44:00,
2013-04-05 19:49:00,55.5,26.9,29.91,NNW,338,7.0,14.0,33,0.00,,,0.00,0.00,VWS V14.01,2013-04-05 23:49:00,
2013-04-05 19:54:00,55.3,26.0,29.92,NW,323,8.0,13.0,32,0.00,,,0.00,0.00,VWS V14.01,2013-04-05 23:54:00,
2013-04-05 20:00:00,55.1,26.5,29.92,NNW,346,7.0,14.0,33,0.00,,,0.00,0.00,VWS V14.01,2013-04-06 00:00:00,
2013-04-05 20:05:00,54.8,26.3,29.93,NW,315,9.0,13.0,33,0.00,,,0.00,0.00,VWS V14.01,2013-04-06 00:05:00,
2013-04-05 20:10:00,54.6,26.1,29.93,NNW,330,6.0,10.0,33,0.00,,,0.00,0.00,VWS V14.01,2013-04-06 00:10:00,
2013-04-05 20:15:00,54.3,25.8,29.93,NW,326,6.0,10.0,33,0.00,,,0.00,0.00,VWS V14.01,2013-04-06 00:15:00,
2013-04-05 20:20:00,54.1,25.6,29.94,NNW,329,5.0,14.0,33,0.00,,,0.00,0.00,VWS V14.01,2013-04-06 00:20:00,
2013-04-05 20:25:00,53.9,25.5,29.94,NW,318,9.0,13.0,33,0.00,,,0.00,0.00,VWS V14.01,2013-04-06 00:25:00,
2013-04-05 20:30:00,53.8,25.4,29.94,NNW,329,5.0,5.0,33,0.00,,,0.00,0.00,VWS V14.01,2013-04-06 00:30:00,
2013-04-05 20:35:00,53.7,26.0,29.95,North,360,1.0,6.0,34,0.00,,,0.00,0.00,VWS V14.01,2013-04-06 00:35:00,
2013-04-05 20:40:00,53.5,25.8,29.95,NW,325,5.0,9.0,34,0.00,,,0.00,0.00,VWS V14.01,2013-04-06 00:40:00,
2013-04-05 20:46:00,53.2,25.6,29.95,NW,315,2.0,8.0,34,0.00,,,0.00,0.00,VWS V14.01,2013-04-06 00:46:00,
2013-04-05 20:51:00,53.1,25.5,29.96,NW,310,6.0,8.0,34,0.00,,,0.00,0.00,VWS V14.01,2013-04-06 00:51:00,
2013-04-05 20:56:00,52.8,25.9,29.97,NNW,336,6.0,8.0,35,0.00,,,0.00,0.00,VWS V14.01,2013-04-06 00:56:00,
2013-04-05 21:01:00,52.6,25.0,29.97,NNW,340,7.0,14.0,34,0.00,,,0.00,0.00,VWS V14.01,2013-04-06 01:01:00,
2013-04-05 21:06:00,52.4,25.6,29.97,NW,321,5.0,8.0,35,0.00,,,0.00,0.00,VWS V14.01,2013-04-06 01:06:00,
2013-04-05 21:12:00,52.2,25.4,29.98,NW,322,6.0,9.0,35,0.00,,,0.00,0.00,VWS V14.01,2013-04-06 01:12:00,
2013-04-05 21:17:00,51.9,25.8,29.98,NNW,348,4.0,8.0,36,0.00,,,0.00,0.00,VWS V14.01,2013-04-06 01:17:00,
2013-04-05 21:22:00,51.7,25.6,29.98,NNW,328,2.0,5.0,36,0.00,,,0.00,0.00,VWS V14.01,2013-04-06 01:22:00,
2013-04-05 21:27:00,51.4,25.4,29.99,North,355,6.0,12.0,36,0.00,,,0.00,0.00,VWS V14.01,2013-04-06 01:27:00,
2013-04-05 21:32:00,51.2,25.2,29.99,NW,315,7.0,8.0,36,0.00,,,0.00,0.00,VWS V14.01,2013-04-06 01:32:00,
2013-04-05 21:37:00,51.1,25.1,30.00,North,355,7.0,9.0,36,0.00,,,0.00,0.00,VWS V14.01,2013-04-06 01:37:00,
2013-04-05 21:42:00,51.0,25.0,30.00,North,360,8.0,11.0,36,0.00,,,0.00,0.00,VWS V14.01,2013-04-06 01:42:00,
2013-04-05 21:47:00,50.9,25.6,30.00,NNW,333,5.0,9.0,37,0.00,,,0.00,0.00,VWS V14.01,2013-04-06 01:47:00,
2013-04-05 21:52:00,50.6,25.3,30.00,NNW,333,3.0,7.0,37,0.00,,,0.00,0.00,VWS V14.01,2013-04-06 01:52:00,
2013-04-05 21:57:00,50.4,25.1,30.00,North,355,5.0,9.0,37,0.00,,,0.00,0.00,VWS V14.01,2013-04-06 01:57:00,
2013-04-05 22:02:00,50.3,25.0,30.01,NNW,336,5.0,9.0,37,0.00,,,0.00,0.00,VWS V14.01,2013-04-06 02:02:00,
2013-04-05 22:08:00,50.1,24.9,30.01,NNW,343,5.0,6.0,37,0.00,,,0.00,0.00,VWS V14.01,2013-04-06 02:08:00,
2013-04-05 22:13:00,49.9,24.7,30.01,NNW,342,3.0,7.0,37,0.00,,,0.00,0.00,VWS V14.01,2013-04-06 02:13:00,
2013-04-05 22:18:00,49.6,24.4,30.02,NW,326,6.0,10.0,37,0.00,,,0.00,0.00,VWS V14.01,2013-04-06 02:18:00,
2013-04-05 22:23:00,49.4,24.2,30.02,North,360,5.0,8.0,37,0.00,,,0.00,0.00,VWS V14.01,2013-04-06 02:23:00,
2013-04-05 22:28:00,49.2,24.7,30.02,NNW,345,3.0,9.0,38,0.00,,,0.00,0.00,VWS V14.01,2013-04-06 02:28:00,
2013-04-05 22:33:00,49.1,24.6,30.02,NNW,344,0.0,7.0,38,0.00,,,0.00,0.00,VWS V14.01,2013-04-06 02:33:00,
2013-04-05 22:38:00,48.8,24.3,30.02,NNW,337,2.0,6.0,38,0.00,,,0.00,0.00,VWS V14.01,2013-04-06 02:38:00,
2013-04-05 22:44:00,48.5,24.1,30.02,NNW,338,0.0,5.0,38,0.00,,,0.00,0.00,VWS V14.01,2013-04-06 02:44:00,
2013-04-05 22:49:00,48.2,24.4,30.02,NW,315,1.0,4.0,39,0.00,,,0.00,0.00,VWS V14.01,2013-04-06 02:49:00,
2013-04-05 22:54:00,47.8,24.1,30.02,NW,317,4.0,6.0,39,0.00,,,0.00,0.00,VWS V14.01,2013-04-06 02:54:00,
2013-04-05 23:00:00,47.5,23.8,30.02,NNW,334,2.0,5.0,39,0.00,,,0.00,0.00,VWS V14.01,2013-04-06 03:00:00,
2013-04-05 23:05:00,47.2,24.1,30.03,NNW,338,0.0,5.0,40,0.00,,,0.00,0.00,VWS V14.01,2013-04-06 03:05:00,
2013-04-05 23:10:00,47.0,24.0,30.03,NNW,338,0.0,5.0,40,0.00,,,0.00,0.00,VWS V14.01,2013-04-06 03:10:00,
2013-04-05 23:15:00,46.8,23.8,30.03,NNW,331,4.0,7.0,40,0.00,,,0.00,0.00,VWS V14.01,2013-04-06 03:15:00,
2013-04-05 23:20:00,46.7,23.1,30.03,NNW,336,3.0,5.0,39,0.00,,,0.00,0.00,VWS V14.01,2013-04-06 03:20:00,
2013-04-05 23:25:00,46.5,22.9,30.03,North,349,5.0,5.0,39,0.00,,,0.00,0.00,VWS V14.01,2013-04-06 03:25:00,
2013-04-05 23:31:00,46.4,22.8,30.03,NW,325,7.0,9.0,39,0.00,,,0.00,0.00,VWS V14.01,2013-04-06 03:31:00,
2013-04-05 23:36:00,46.4,22.8,30.04,NNW,336,7.0,10.0,39,0.00,,,0.00,0.00,VWS V14.01,2013-04-06 03:36:00,
2013-04-05 23:41:00,46.4,22.8,30.04,North,349,5.0,7.0,39,0.00,,,0.00,0.00,VWS V14.01,2013-04-06 03:41:00,
2013-04-05 23:46:00,46.2,22.6,30.04,NNW,344,4.0,5.0,39,0.00,,,0.00,0.00,VWS V14.01,2013-04-06 03:46:00,
2013-04-05 23:51:00,45.9,23.0,30.05,NNW,346,3.0,4.0,40,0.00,,,0.00,0.00,VWS V14.01,2013-04-06 03:51:00,
2013-04-05 23:56:00,45.5,22.6,30.04,North,360,4.0,11.0,40,0.00,,,0.00,0.00,VWS V14.01,2013-04-06 03:56:00,